Location: Newark
(13.6797°N, 8.5297°E)
Time: 11:23:55
(UTC+00:00)

SR - Pass Details

Date: 26 January 2020
Orbit: 575 x 880 km, 66.7° (Epoch: 25 February)

Event Time Altitude Azimuth Distance (km) Brightness Sun altitude
Rises 19:38:41 0° 186° (S) 3,225 ? -32.5°
Reaches altitude 10° 19:41:06 10° 179° (S) 2,344 ? -33.1°
Enters shadow 19:41:08 10° 179° (S) 2,332 ? -33.1°
Maximum altitude 19:46:15 44° 108° (ESE) 1,127 - -34.3°
Drops below altitude 10° 19:51:44 10° 37° (NE) 2,494 - -35.6°
Sets 19:54:22 0° 31° (NNE) 3,451 - -36.2°
